Amarillo, TX

3:31 AM CDT on July 17, 2019 (GMT -0500)
Amarillo International

Weather History for KAMA - May, 2019

Change the Weather History Date:

Friday, May 10, 2019

  Actual Average Record
Temperature  
Mean Temperature 43 °F 64 °F  
Max Temperature 48 °F 78 °F 97 °F (1962)
Min Temperature 38 °F 50 °F 35 °F (1918)
Degree Days  
Heating Degree Days 22 3  
Month to date heating degree days 71 43  
Since 1 July heating degree days 4054 4131  
Cooling Degree Days 0 2  
Month to date cooling degree days 7 18  
Year to date cooling degree days 23 39  
Moisture  
Dew Point 39 °F    
Average Humidity 81    
Maximum Humidity 92    
Minimum Humidity 70    
Precipitation  
Precipitation 0.09 in 0.05 in 1.45 in (1893)
Month to date precipitation 1.35 0.53  
Year to date precipitation 5.44 4.60  
Snow  
Snow 0.00 in 0.00 in T in (2005)
Month to date snowfall 0.0 0.2  
Since 1 July snowfall 8.1 17.8  
Snow Depth 0.00 in    
Sea Level Pressure  
Sea Level Pressure 30.11 in    
Wind  
Wind Speed 8 mph (ENE)    
Max Wind Speed 15 mph    
Max Gust Speed 17 mph    
Visibility 9 miles    
Events Rain    
T = Trace of Precipitation, MM = Missing Value Source: NWS Daily Summary

Daily Weather History Graph

Daily Weather History Graph

Search for Another Location

Airport or City:

Astronomy

May. 10, 2019 Rise Set
Actual Time 6:47 AM CDT 8:39 PM CDT
Civil Twilight 6:19 AM CDT 9:07 PM CDT
Nautical Twilight 5:45 AM CDT 9:41 PM CDT
Astronomical Twilight 5:09 AM CDT 10:17 PM CDT
Moon 11:51 AM CDT (5/10) 1:32 AM CDT (5/10)
Length of Visible Light 14h 48m
Length of Day
13h 52m
Waxing Crescent, 35% of the Moon is Illuminated
May 10
Waxing Crescent
May 11
First Quarter
May 18
Full
May 26
Last Quarter
Jun 3
New

Hourly Weather History & Observations

Time (CDT) Temp. Windchill Dew Point Humidity Pressure Visibility Wind Dir Wind Speed Gust Speed Precip Events Conditions
12:53 AM 42.1 °F 37.1 °F 34.0 °F 73% 30.17 in 10.0 mi NNE 8.1 mph - N/A   Overcast
1:53 AM 42.1 °F 35.7 °F 35.1 °F 76% 30.14 in 10.0 mi North 11.5 mph - N/A   Overcast
2:53 AM 39.9 °F 34.5 °F 33.1 °F 77% 30.13 in 10.0 mi North 8.1 mph - N/A   Mostly Cloudy
3:00 AM 39.9 °F 36.7 °F 34.0 °F 79% 30.16 in 10.0 mi North 4.6 mph - N/A   Scattered Clouds
3:53 AM 37.9 °F 34.4 °F 33.1 °F 83% 30.14 in 10.0 mi North 4.6 mph - N/A   Clear
4:53 AM 39.9 °F 34.5 °F 36.0 °F 86% 30.13 in 10.0 mi NNW 8.1 mph - N/A   Clear
5:53 AM 39.0 °F 35.7 °F 36.0 °F 89% 30.17 in 10.0 mi North 4.6 mph - N/A   Partly Cloudy
6:53 AM 39.9 °F 33.4 °F 36.0 °F 86% 30.17 in 10.0 mi NE 10.4 mph - N/A   Overcast
7:53 AM 41.0 °F 35.2 °F 37.0 °F 86% 30.18 in 10.0 mi ENE 9.2 mph - N/A   Overcast
8:09 AM 41.0 °F 34.7 °F 37.0 °F 86% 30.19 in 10.0 mi East 10.4 mph - N/A   Overcast
8:53 AM 41.0 °F 33.5 °F 36.0 °F 82% 30.17 in 10.0 mi East 13.8 mph - N/A   Mostly Cloudy
9:09 AM 42.1 °F 35.2 °F 36.0 °F 79% 30.18 in 10.0 mi East 12.7 mph - N/A   Mostly Cloudy
9:53 AM 42.1 °F 36.1 °F 35.1 °F 76% 30.17 in 10.0 mi ESE 10.4 mph - N/A   Overcast
10:20 AM 42.1 °F 36.1 °F 37.0 °F 82% 30.15 in 10.0 mi ENE 10.4 mph - 0.00 in Rain Light Rain
10:53 AM 43.0 °F 37.2 °F 37.0 °F 80% 30.12 in 10.0 mi NE 10.4 mph - 0.00 in Rain Light Rain
12:10 PM 44.1 °F 40.8 °F 37.0 °F 76% 30.16 in 10.0 mi ENE 5.8 mph - N/A   Overcast
12:53 PM 44.1 °F 41.5 °F 37.0 °F 76% 30.15 in 10.0 mi NE 4.6 mph - N/A   Overcast
1:53 PM 45.0 °F 41.2 °F 37.0 °F 74% 30.12 in 10.0 mi North 6.9 mph - N/A   Overcast
2:53 PM 46.9 °F - 39.0 °F 74% 30.08 in 10.0 mi NNE 11.5 mph - N/A   Overcast
3:53 PM 46.0 °F 40.6 °F 39.9 °F 79% 30.08 in 10.0 mi NE 11.5 mph - 0.00 in   Overcast
4:53 PM 45.0 °F 40.1 °F 39.9 °F 82% 30.05 in 10.0 mi ENE 9.2 mph - 0.00 in Rain Light Rain
5:53 PM 45.0 °F 40.6 °F 41.0 °F 86% 30.05 in 5.0 mi ENE 8.1 mph - 0.04 in Rain Rain
6:53 PM 45.0 °F 41.2 °F 41.0 °F 86% 30.04 in 7.0 mi NE 6.9 mph - 0.04 in Rain Light Rain
7:15 PM 45.0 °F 41.2 °F 42.1 °F 90% 30.07 in 9.0 mi ENE 6.9 mph - 0.01 in Rain Light Rain
7:28 PM 45.0 °F 40.6 °F 42.1 °F 90% 30.06 in 10.0 mi ENE 8.1 mph - 0.01 in   Overcast
7:44 PM 45.0 °F 40.6 °F 42.1 °F 90% 30.06 in 10.0 mi East 8.1 mph - 0.01 in   Overcast
7:51 PM 44.6 °F 40.7 °F 42.8 °F 93% 30.06 in 10.0 mi East 6.9 mph - 0.01 in   Overcast
7:53 PM 45.0 °F 41.2 °F 42.1 °F 90% 30.05 in 10.0 mi East 6.9 mph - 0.01 in   Overcast
8:10 PM 45.0 °F 41.2 °F 42.1 °F 90% 30.06 in 10.0 mi East 6.9 mph - N/A   Overcast
8:25 PM 45.0 °F 40.6 °F 41.0 °F 86% 30.06 in 10.0 mi East 8.1 mph - 0.00 in Rain Light Rain
8:53 PM 44.1 °F 40.1 °F 42.1 °F 93% 30.06 in 10.0 mi SE 6.9 mph - 0.00 in   Overcast
9:14 PM 44.1 °F 39.0 °F 41.0 °F 89% 30.08 in 10.0 mi ESE 9.2 mph - N/A   Overcast
9:53 PM 44.1 °F 40.8 °F 42.1 °F 93% 30.06 in 8.0 mi ESE 5.8 mph - 0.00 in   Overcast
10:05 PM 44.1 °F 40.1 °F 42.1 °F 93% 30.08 in 6.0 mi ESE 6.9 mph - N/A   Overcast
10:21 PM 44.1 °F 39.0 °F 42.1 °F 93% 30.08 in 7.0 mi ESE 9.2 mph - N/A   Overcast
10:31 PM 44.1 °F 39.5 °F 42.1 °F 93% 30.09 in 6.0 mi SE 8.1 mph - N/A   Overcast
10:53 PM 44.1 °F 39.5 °F 42.1 °F 93% 30.06 in 7.0 mi SE 8.1 mph - N/A   Overcast
11:17 PM 44.1 °F 40.8 °F 42.1 °F 93% 30.08 in 10.0 mi ESE 5.8 mph - N/A   Overcast
11:53 PM 44.1 °F 40.1 °F 42.1 °F 93% 30.06 in 7.0 mi ESE 6.9 mph - 0.00 in   Overcast